Location: Hermaringen
(48.5952°N, 10.2585°E)
Time: 19:24:51
(UTC+00:00)

Altair - Pass Details

Date: 25 February 2026
Orbit: 1502 x 1682 km, 47.2° (Epoch: 10 March)

Event Time Altitude Azimuth Distance (km) Brightness Sun altitude
Rises 04:09:09 0° 259° (W) 4,633 - -20.5°
Reaches altitude 10° 04:12:08 10° 259° (WSW) 3,657 - -20.0°
Exits shadow 04:15:44 28° 257° (WSW) 2,548 8.0 -19.4°
Maximum altitude 04:21:21 82° 173° (S) 1,542 7.4 -18.5°
Drops below altitude 10° 04:30:49 10° 88° (E) 3,756 10.9 -16.9°
Sets 04:33:56 0° 88° (E) 4,764 11.9 -16.4°
